User: anonymous   Login
Location: Clinton NY
(43.0598°N, 75.3602°W)
Time: 11:20:43
(UTC-04:00)
Language:

Iridium 42 - Orbit

View from above orbital plane
View from above orbital plane
View from above satellite
View from above satellite

Ground track
Ground track

The orbit data is extracted from the following two-line orbital elements,

1 25077U 97077A   18145.61137986 +.00000069 +00000-0 +17519-4 0  9993
2 25077 086.4001 238.6943 0001777 100.2872 259.8525 14.34525177071271
Epoch (UTC): 25 May 2018 14:40:23
Eccentricity: 0.0001777
inclination: 86.4001°
perigee height: 775 km
apogee height: 778 km
right ascension of ascending node: 238.6943°
argument of perigee: 100.2872°
revolutions per day: 14.34525177
mean anomaly at epoch: 259.8525°
orbit number at epoch: 7127

The dashed part of the orbit path shows where the satellite is in the earth's shadow,  

DLR